Location: Dixon
(37.9953°N, 92.0959°W)
Time: 16:26:26
(UTC+00:00)

BlueWalker 3 - Visible Passes

Search period start: 07 December 2025 00:00
Search period end: 17 December 2025 00:00
Orbit: 455 x 462 km, 53.2° (Epoch: 06 December)

Date Brightness Start Highest point End Pass type
(mag) Time Alt. Az. Time Alt. Az. Time Alt. Az.
07 Dec 4.8 01:29:56 10° WNW 01:30:31 14° WNW 01:30:31 14° WNW visible
07 Dec 3.2 23:18:00 10° NNW 23:20:49 21° NNE 23:23:37 10° E visible
08 Dec 2.8 00:55:01 10° WNW 00:57:56 46° W 00:57:56 46° W visible
09 Dec 1.9 00:20:09 10° NW 00:23:46 74° SW 00:25:43 25° SE visible
09 Dec 1.7 23:45:18 10° NW 23:48:56 82° NE 23:52:33 10° SE visible
11 Dec 4.9 00:49:27 10° W 00:51:11 13° SW 00:52:54 10° SSW visible
12 Dec 4.8 00:13:57 10° W 00:16:25 17° SW 00:18:52 10° S visible
12 Dec 4.5 23:38:41 10° WNW 23:41:36 23° SW 23:44:31 10° S visible
